Regional Weather Roundup
Issued by NWS

Home | Current Version | Previous Version | Graphics & Text | Print | Product List | Glossary On
Versions: 1 2 3 4 5 6 7 8 9 10 11 12 13 14 15 16 17 18 19 20 21 22 23 24 25 26 27 28 29 30 31 32 33 34 35 36 37 38 39 40 41 42
000
ASUS45 KCYS 261410
RWRWY

WYOMING REGIONAL WEATHER ROUNDUP
NATIONAL WEATHER SERVICE CHEYENNE WY
700 AM MST FRI DEC 26 2014

NOTE:  "FAIR" INDICATES FEW OR NO CLOUDS BELOW 12,000 FEET
WITH NO SIGNIFICANT WEATHER AND/OR OBSTRUCTIONS TO VISIBILITY.

WYZ001-261500-
YELLOWSTONE NATIONAL PARK

CITY           SKY/WX    TMP DP  RH WIND       PRES   REMARKS
LK YELLOWSTONE   N/A     -7 -11  83 CALM      29.88R
W YELLOWSTONE  NOT AVBL

$$
WYZ002>013-054>058-071-098>099-261500-
NORTHERN WYOMING

CITY           SKY/WX    TMP DP  RH WIND       PRES   REMARKS
JACKSON        PTCLDY     5   1  85 N14       29.88R WCI -12
CODY           CLOUDY    18  14  86 SW3       29.96S
GREYBULL       CLOUDY    14  12  92 SE5       30.02R WCI   6
WORLAND        LGT SNOW  13  10  88 S6        30.01R FOG     WCI   4
SHERIDAN       FAIR      16  12  84 CALM      30.02S
BUFFALO        CLOUDY    16  14  92 CALM      29.99R
GILLETTE       CLOUDY    17  13  84 N6        30.01R WCI   9
HULETT           N/A    N/A N/A N/A MISG        N/A
NEWCASTLE      CLOUDY    19  12  73 CALM      30.02R

$$
WYZ014>020-022>026-101>103-261500-
CENTRAL WYOMING

CITY           SKY/WX    TMP DP  RH WIND       PRES   REMARKS
BIG PINEY      LGT SNOW   6   2  83 CALM      29.83R FOG
PINEDALE       LGT SNOW   7   5  92 E5        29.84R WCI  -2
DUBOIS         NOT AVBL
LANDER         LGT SNOW  14  11  87 NW3       29.92R FOG
RIVERTON       LGT SNOW  14  11  87 CALM      29.94R FOG
CASPER         LGT SNOW  13  10  88 E3        29.95R FOG
DOUGLAS        LGT SNOW  14  12  92 NW3       29.98R FOG

$$
WYZ021-027>030-104>119-261500-
SOUTHERN WYOMING

CITY           SKY/WX    TMP DP  RH WIND       PRES   REMARKS
EVANSTON       LGT SNOW  14   9  80 N8        29.83R WCI   3
FORT BRIDGER   LGT SNOW  13  11  94 SE5       29.86R WCI   5
ROCK SPRINGS   CLOUDY    13   9  84 NE13      29.83R WCI  -2
DIXON          LGT SNOW  18  15  88 W3        29.78R
RAWLINS        LGT SNOW  11   7  84 NE13      29.82R FOG     WCI  -4
SARATOGA       LGT SNOW  12   9  85 W6        29.78R WCI   3
LARAMIE        LGT SNOW   6   2  83 W5        29.79R FOG     WCI  -3
CHEYENNE       LGT SNOW  12   8  84 N7        29.87R FOG     WCI   1
TORRINGTON     FLURRIES  16  12  84 N3        30.00
PINE BLUFFS    LGT SNOW  14  12  92 NE9       29.94R WCI   2

$$


USA.gov is the U.S. government's official web portal to all federal, state and local government web resources and services.